COSMOS 2389

Satellite information

Favourite Embed

Satellite Type and Status

PAYLOADIN ORBIT

Key statistics

Satellite COSMOS 2389 at a glance.

Uptime

8501

Days in orbit

Revolutions

≈ 13.8

Per day

Orbit

LEO

Low Earth Orbit

Inclination

83.0

Latest

Satellite identification and parameters

Extended collection of information and parameters for COSMOS 2389.

Object identification

Identified? True

Debris? False

Object name: COSMOS 2389

International designator: 2002-026A

Object number (NORAD): 27436

Object ID (CCSDS): 27436

Country: COMMONWEALTH OF INDEPENDENT STATES (CIS)

Current information (Y/N): Y

RCS size: LARGE

Orbital parameters

Period: 104.716 minutes

Inclination: 82.9532 deg

SMA: 7359.305 km

Apoapsis: 1014.877 km

Periapsis: 947.463 km

RAAN: 20.7217 deg

Eccentricy: 0.00458022

Argument of periapsis: 339.5674 deg

Mean anomaly: 195.4303 deg

Mean motion: 13.75141997 rev/day

Mean motion (dot): 0.00000072 rev/day2

B* drag term: 0.000059215469 1/REarth

Two-line elements (TLE)

Creation date: Sept. 4, 2025, 10:13 a.m.

Reference frame: TEME

Reference center: EARTH

Epoch: Sept. 4, 2025, 2:40 a.m. UTC

TLE line 0: 0 COSMOS 2389

TLE line 1: 1 27436U 02026A 25247.11143459 .00000072 00000-0 59215-4 0 9995

TLE line 2: 2 27436 82.9532 20.7217 0045802 339.5674 195.4303 13.75141997167790

Live tracking on map

Real-time ground track for satellite COSMOS 2389.

In-orbit conjunctions

A list of the most updated potential collisions computed for object COSMOS 2389.

Target Orbit TCA Probability of collision Miss distance Type
FENGYUN 1C DEB SSO 2025-01-05 12:50:11 0.0007276849 377.0 (m) DEBRIS
PEGASUS DEB LEO 2024-11-08 05:48:48 0.0001598811 696.0 (m) DEBRIS
FENGYUN 1C DEB SSO 2024-10-08 03:19:26 0.0001709708 696.0 (m) DEBRIS

Associated space launch

Navigation satellite providing location information for the Tsiklon-B navigation system

COSMOS 2389 was lifted into orbit during the mission ‘Kosmos-3M | Parus 93’, on board a Kosmos-3M space rocket.

The launch took place on May 28, 2002, 6:14 p.m. from 132/1 (132L).

For more information about the launch, click the button.

Launch to space Kosmos-3M | Parus 93
Kosmos-3M | Parus 93

Agency: N/A

Status: Launch Successful

Launch date: May 28, 2002, 6:14 p.m. UTC

Rocket: Kosmos-3M

Launch pad: 132/1 (132L)

Location: Plesetsk Cosmodrome, Russian Federation

...

Latest news about this satellite

There are no fresh news available about this satellite. Check back as we update our databases every day.


Newsletter sign-up

Weekly statistics, charts and insights to help you stay on top of the space industry.